User: anonymous   Login
Location: Unspecified
(0.0000°N, 0.0000°E)
Time: 19:18:21
(UTC+00:00)
Language:

NNS O-29 - Orbit

View from above orbital plane
View from above orbital plane
View from above satellite
View from above satellite

Ground track
Ground track

The orbit data is extracted from the following two-line orbital elements,

1 18362U 87080B   17141.95944819 +.00000090 +00000-0 +13671-3 0  9996
2 18362 090.3290 334.8772 0105935 191.1291 311.6474 13.44021543455058
Epoch (UTC): 21 May 2017 23:01:36
Eccentricity: 0.0105935
inclination: 90.3290°
perigee height: 1015 km
apogee height: 1173 km
right ascension of ascending node: 334.8772°
argument of perigee: 191.1291°
revolutions per day: 13.44021543
mean anomaly at epoch: 311.6474°
orbit number at epoch: 45505

The dashed part of the orbit path shows where the satellite is in the earth's shadow,  

DLR